Location: Brasstown Bald
(34.8693°N, 83.8103°W)
Time: 04:38:19
(UTC-04:00)

Amateur Radio Satellites - All Passes

Search period start: 21 April 2014 04:08
Search period end: 22 April 2014 04:08
Location: Brasstown Bald, 34.8693°N, 83.8103°W

Satellite Date Start Highest point End Downlink Frequencies (MHz)
Time Altitude Azimuth
TMSAT-1 21 Apr 04:11:17 04:15:56 31° 97° (E) 04:20:33 436.925 FM
Uribyol 2 21 Apr 04:20:52 04:25:42 41° 289° (WNW) 04:30:32 436.500 FM
KITSAT 1 21 Apr 04:32:57 04:40:22 39° 307° (NW) 04:47:51 435.175 FM
AO-27 21 Apr 05:03:13 05:06:31 17° 295° (WNW) 05:09:50 436.795 MHz FM
AO-Echo 21 Apr 05:03:21 05:06:34 18° 293° (WNW) 05:09:46 ?
Gurwin Techsat 1B 21 Apr 05:03:35 05:08:46 56° 287° (WNW) 05:13:56 435.225 FM
RS-15 21 Apr 05:05:14 05:05:38 10° 97° (E) 05:06:02 29.354 - 29.394 USB, Beacon 29.352 USB
ITAMSAT 1 21 Apr 05:14:03 05:16:40 14° 296° (WNW) 05:19:17 435.822 SSB
JAS-1B 21 Apr 05:14:35 05:20:10 56° 102° (ESE) 05:26:09 435.800 - 435.900 CW/SSB
Uosat F 21 Apr 05:21:51 05:26:45 53° 101° (E) 05:31:36 435.120 FM
AO-7 21 Apr 05:46:58 05:55:06 55° 103° (ESE) 06:03:12 29.400 - 29.500 MHz
TMSAT-1 21 Apr 05:51:17 05:55:43 28° 291° (WNW) 06:00:09 436.925 FM
STRAND 1 21 Apr 06:25:06 06:28:31 18° 66° (ENE) 06:31:56 ?
MaSat-1 21 Apr 06:44:41 06:45:21 11° 61° (ENE) 06:46:02 437.345 MHz
Hamsat 21 Apr 07:00:44 07:04:07 22° 95° (E) 07:07:30 145.90 MHz
Uosat F 21 Apr 07:02:12 07:05:03 16° 295° (WNW) 07:07:55 435.120 FM
AO-40 21 Apr 07:03:15 10:18:40 27° 130° (SE) 11:43:44 Beacon 2401.320
RS-15 21 Apr 07:04:39 07:15:55 67° 113° (ESE) 07:26:46 29.354 - 29.394 USB, Beacon 29.352 USB
JAS-1B 21 Apr 07:07:05 07:10:25 16° 296° (WNW) 07:13:51 435.800 - 435.900 CW/SSB
AO-7 21 Apr 07:40:30 07:47:25 31° 299° (WNW) 07:54:21 29.400 - 29.500 MHz
PANSAT 21 Apr 07:47:57 07:50:11 15° 161° (SSE) 07:52:24 not established
STRAND 1 21 Apr 08:02:26 08:07:19 46° 260° (W) 08:12:13 ?
MaSat-1 21 Apr 08:20:43 08:23:41 33° 249° (WSW) 08:27:10 437.345 MHz
JAS-2 21 Apr 08:25:02 08:30:29 56° 101° (ESE) 08:36:33 435.800 - 435.900 CW/SSB, 435.910 FM
Hamsat 21 Apr 08:36:22 08:40:02 27° 289° (WNW) 08:43:41 145.90 MHz
SO-67 21 Apr 08:47:09 08:50:39 76° 101° (E) 08:54:08 435.3500 MHz FM
RS-15 21 Apr 09:19:02 09:28:56 35° 314° (NW) 09:38:40 29.354 - 29.394 USB, Beacon 29.352 USB
PANSAT 21 Apr 09:26:31 09:29:53 28° 173° (S) 09:33:15 not established
PCSat 21 Apr 09:26:41 09:30:45 21° 52° (NE) 09:34:48 145.825 MHz
HO-68 21 Apr 10:06:20 10:12:53 37° 99° (E) 10:19:22 435.675 MHz FM
JAS-2 21 Apr 10:11:44 10:15:14 17° 294° (WNW) 10:18:56 435.800 - 435.900 CW/SSB, 435.910 FM
Oscar 11 21 Apr 10:19:08 10:21:25 14° 93° (E) 10:23:41 145.825 FM, Beacon 2401.500 USB
Sapphire 21 Apr 10:24:21 10:29:43 60° 62° (ENE) 10:35:03 437.095 MHz 1200 baud AX-25 AFSK
KITSAT 1 21 Apr 10:35:55 10:39:48 14° 37° (NE) 10:43:41 435.175 FM
PANSAT 21 Apr 11:06:20 11:09:44 29° 186° (S) 11:13:07 not established
PCSat 21 Apr 11:09:12 11:14:25 49° 249° (WSW) 11:19:36 145.825 MHz
Saudisat 1A 21 Apr 11:17:21 11:21:49 87° 117° (ESE) 11:26:18 436.775 MHz
RS-15 21 Apr 11:42:28 11:46:14 12° 348° (NNW) 11:50:01 29.354 - 29.394 USB, Beacon 29.352 USB
FUNcube-1 21 Apr 11:49:23 11:53:33 48° 100° (E) 11:57:48 145.950 - 145.970 MHz USB
Oscar 11 21 Apr 11:53:39 11:57:45 41° 287° (WNW) 12:01:51 145.825 FM, Beacon 2401.500 USB
HO-68 21 Apr 11:54:01 12:00:28 38° 294° (WNW) 12:06:55 435.675 MHz FM
Sapphire 21 Apr 12:09:38 12:12:34 15° 256° (WSW) 12:15:29 437.095 MHz 1200 baud AX-25 AFSK
KITSAT 1 21 Apr 12:28:59 12:37:00 61° 59° (ENE) 12:44:56 435.175 FM
PANSAT 21 Apr 12:47:02 12:49:27 16° 198° (SSW) 12:51:53 not established
Saudisat 1A 21 Apr 13:01:05 13:02:01 11° 315° (NW) 13:02:57 436.775 MHz
Oscar 19 21 Apr 13:11:07 13:13:40 14° 64° (ENE) 13:16:13 437.125 CW, 437.150 USB
Oscar 16 21 Apr 13:18:47 13:22:12 18° 66° (ENE) 13:25:37 437.025 USB, Beacon 2401.1428
FUNcube-1 21 Apr 13:27:43 13:29:33 13° 293° (WNW) 13:31:24 145.950 - 145.970 MHz USB
Oscar 10/S400 21 Apr 13:55:44 15:25:58 28° 267° (W) 18:38:39 145.825 - 145.975 CW/USB, Beacon 145.810 USB
Uribyol 2 21 Apr 13:57:17 14:01:12 22° 67° (ENE) 14:05:07 436.500 FM
RS-15 21 Apr 13:59:08 14:05:36 17° 27° (NNE) 14:12:05 29.354 - 29.394 USB, Beacon 29.352 USB
ISS 21 Apr 14:10:02 14:12:37 21° 129° (SE) 14:15:14 145.800 FM
SO-50 21 Apr 14:25:17 14:26:35 11° 107° (ESE) 14:27:52 436.795 FM
KITSAT 1 21 Apr 14:25:30 14:31:46 26° 256° (WSW) 14:38:01 435.175 FM
AO-Echo 21 Apr 14:33:00 14:37:48 38° 72° (ENE) 14:42:30 ?
AO-27 21 Apr 14:37:17 14:42:19 54° 73° (ENE) 14:47:22 436.795 MHz FM
Gurwin Techsat 1B 21 Apr 14:43:30 14:47:01 18° 65° (ENE) 14:50:31 435.225 FM
ITAMSAT 1 21 Apr 14:47:19 14:52:26 67° 74° (ENE) 14:57:35 435.822 SSB
Oscar 19 21 Apr 14:47:21 14:52:25 63° 259° (W) 14:57:33 437.125 CW, 437.150 USB
Oscar 16 21 Apr 14:56:14 15:01:08 47° 260° (W) 15:06:06 437.025 USB, Beacon 2401.1428
TMSAT-1 21 Apr 15:28:50 15:33:35 35° 70° (ENE) 15:38:20 436.925 FM
Uribyol 2 21 Apr 15:35:39 15:40:25 37° 262° (W) 15:45:11 436.500 FM
ISS 21 Apr 15:46:13 15:49:13 30° 324° (NW) 15:52:14 145.800 FM
JAS-1B 21 Apr 15:55:22 16:02:46 41° 71° (ENE) 16:09:04 435.800 - 435.900 CW/SSB
OPAL 21 Apr 15:55:44 16:00:40 41° 101° (E) 16:05:32 ?
SO-50 21 Apr 16:02:10 16:06:34 60° 301° (WNW) 16:11:02 436.795 FM
RS-15 21 Apr 16:10:20 16:21:05 57° 55° (NE) 16:32:05 29.354 - 29.394 USB, Beacon 29.352 USB
AO-Echo 21 Apr 16:12:35 16:16:35 22° 265° (W) 16:20:33 ?
AO-27 21 Apr 16:19:14 16:22:06 15° 267° (W) 16:25:00 436.795 MHz FM
Gurwin Techsat 1B 21 Apr 16:21:26 16:26:33 49° 260° (W) 16:31:42 435.225 FM
ITAMSAT 1 21 Apr 16:30:34 16:32:20 12° 268° (W) 16:34:06 435.822 SSB
Uosat F 21 Apr 16:31:50 16:36:41 51° 73° (ENE) 16:41:33 435.120 FM
UOSAT-12 21 Apr 16:35:01 16:37:11 13° 107° (ESE) 16:39:22 437.025 FM, 437.400 FM
AO-7 21 Apr 16:42:10 16:50:09 55° 67° (ENE) 16:58:08 29.400 - 29.500 MHz
TMSAT-1 21 Apr 17:09:16 17:13:30 24° 265° (W) 17:17:46 436.925 FM
OPAL 21 Apr 17:35:19 17:39:13 22° 295° (WNW) 17:43:07 ?
JAS-1B 21 Apr 17:45:58 17:53:17 34° 261° (W) 17:59:35 435.800 - 435.900 CW/SSB
Hamsat 21 Apr 17:53:44 17:54:33 11° 65° (ENE) 17:55:23 145.90 MHz
UOSAT-12 21 Apr 18:12:23 18:16:48 53° 302° (WNW) 18:21:21 437.025 FM, 437.400 FM
Uosat F 21 Apr 18:12:56 18:15:43 15° 267° (W) 18:18:31 435.120 FM
RS-15 21 Apr 18:23:18 18:32:55 37° 253° (WSW) 18:42:51 29.354 - 29.394 USB, Beacon 29.352 USB
AO-7 21 Apr 18:36:21 18:43:10 29° 263° (W) 18:50:03 29.400 - 29.500 MHz
JAS-2 21 Apr 18:37:05 18:40:07 15° 65° (ENE) 18:43:02 435.800 - 435.900 CW/SSB, 435.910 FM
SO-67 21 Apr 19:18:59 19:21:03 15° 70° (ENE) 19:23:08 435.3500 MHz FM
Hamsat 21 Apr 19:25:54 19:30:00 55° 260° (W) 19:34:10 145.90 MHz
Saudisat 1A 21 Apr 19:47:52 19:51:37 27° 53° (NE) 19:55:20 436.775 MHz
STRAND 1 21 Apr 20:16:11 20:21:18 79° 103° (ESE) 20:26:23 ?
JAS-2 21 Apr 20:18:58 20:24:49 61° 258° (WSW) 20:30:08 435.800 - 435.900 CW/SSB, 435.910 FM
HO-68 21 Apr 20:33:02 20:37:55 20° 60° (ENE) 20:42:48 435.675 MHz FM
ISS 21 Apr 20:42:28 20:43:22 11° 24° (NNE) 20:44:15 145.800 FM
SO-67 21 Apr 20:51:08 20:53:59 24° 264° (W) 20:56:51 435.3500 MHz FM
Saudisat 1A 21 Apr 21:27:28 21:31:07 26° 248° (WSW) 21:34:44 436.775 MHz
STRAND 1 21 Apr 21:58:40 21:59:46 11° 298° (WNW) 22:00:51 ?
ISS 21 Apr 22:17:18 22:20:38 67° 41° (NE) 22:23:57 145.800 FM
HO-68 21 Apr 22:17:48 22:24:53 70° 256° (WSW) 22:32:02 435.675 MHz FM
MaSat-1 21 Apr 22:21:38 22:23:55 20° 296° (WNW) 22:26:00 437.345 MHz
FUNcube-1 21 Apr 22:43:30 22:46:58 25° 71° (ENE) 22:50:23 145.950 - 145.970 MHz USB
Oscar 11 21 Apr 22:45:00 22:49:18 83° 258° (WSW) 22:53:38 145.825 FM, Beacon 2401.500 USB
Sapphire 21 Apr 23:23:26 23:25:17 12° 102° (ESE) 23:27:08 437.095 MHz 1200 baud AX-25 AFSK
PCSat 22 Apr 00:04:40 00:09:29 35° 109° (ESE) 00:14:21 145.825 MHz
FUNcube-1 22 Apr 00:20:08 00:23:19 21° 264° (W) 00:26:29 145.950 - 145.970 MHz USB
SO-50 22 Apr 00:36:53 00:41:23 47° 57° (ENE) 00:45:56 436.795 FM
Sapphire 22 Apr 01:02:36 01:07:59 73° 297° (WNW) 01:13:25 437.095 MHz 1200 baud AX-25 AFSK
PCSat 22 Apr 01:48:17 01:52:54 28° 305° (NW) 01:57:32 145.825 MHz
SO-50 22 Apr 02:18:43 02:21:34 16° 251° (WSW) 02:24:27 436.795 FM
UOSAT-12 22 Apr 02:45:03 02:49:40 51° 57° (ENE) 02:54:13 437.025 FM, 437.400 FM
AO-Echo 22 Apr 02:45:24 02:47:48 14° 93° (E) 02:50:11 ?
Sapphire 22 Apr 02:51:44 02:52:20 10° 315° (NW) 02:52:57 437.095 MHz 1200 baud AX-25 AFSK
KITSAT 1 22 Apr 02:52:53 03:00:53 67° 113° (ESE) 03:08:56 435.175 FM
AO-27 22 Apr 02:54:19 02:58:34 25° 96° (E) 03:02:48 436.795 MHz FM
Oscar 19 22 Apr 03:02:20 03:07:30 62° 101° (E) 03:12:38 437.125 CW, 437.150 USB
ITAMSAT 1 22 Apr 03:04:02 03:08:37 31° 97° (E) 03:13:10 435.822 SSB
OPAL 22 Apr 03:07:28 03:12:17 49° 70° (ENE) 03:17:12 ?
Oscar 16 22 Apr 03:11:04 03:16:18 82° 103° (ESE) 03:21:29 437.025 USB, Beacon 2401.1428
TMSAT-1 22 Apr 03:48:53 03:52:27 18° 94° (E) 03:55:59 436.925 FM
Uribyol 2 22 Apr 03:51:18 03:56:29 81° 284° (WNW) 04:01:40 436.500 FM
